Zagreb Pleso, Croatia

11:52 AM CEST on September 25, 2016 (GMT +0200)
Pleso

Weather History for LDZA - November, 2012

Change the Weather History Date:

Monday, November 5, 2012

  Actual Average Record
Temperature  
Mean Temperature 58 °F -  
Max Temperature 73 °F - - ()
Min Temperature 44 °F - - ()
Degree Days  
Heating Degree Days 6    
Growing Degree Days 8 (Base 50)    
Moisture  
Dew Point 51 °F    
Average Humidity 86    
Maximum Humidity 100    
Minimum Humidity 57    
Precipitation  
Precipitation 0.71 in - - ()
Sea Level Pressure  
Sea Level Pressure 29.60 in    
Wind  
Wind Speed 6 mph ()    
Max Wind Speed 21 mph    
Max Gust Speed 33 mph    
Visibility 6.4 miles    
Events Rain    
T = Trace of Precipitation, MM = Missing Value Source: Averaged Metar Reports

Daily Weather History Graph

Daily Weather History Graph

Search for Another Location

Airport or City:

Trip Planner

Search our weather history database for the weather conditions in past years. The results will help you decide how hot, cold, wet, or windy it might be!

Date:

Astronomy

Nov. 05, 2012 Rise Set
Actual Time 6:41 AM CET 4:36 PM CET
Civil Twilight 6:10 AM CET 5:07 PM CET
Nautical Twilight 5:34 AM CET 5:43 PM CET
Astronomical Twilight 5:00 AM CET 6:17 PM CET
Moon 9:55 PM CET (11/5) 11:52 AM CET (11/5)
Length of Visible Light 10h 57m
Length of Day
9h 54m
Waning Gibbous, 65% of the Moon is Illuminated
Nov 5
Waning Gibbous
Nov 7
Last Quarter
Nov 13
New
Nov 20
First Quarter
Nov 28
Full

Hourly Weather History & Observations

Time (CET) Temp. Windchill Dew Point Humidity Pressure Visibility Wind Dir Wind Speed Gust Speed Precip Events Conditions
12:00 AM 55.4 °F - 51.8 °F 88% 29.62 in - East 3.5 mph - N/A   Clear
12:30 AM 53.6 °F - 50.0 °F 88% 29.59 in - East 4.6 mph - N/A   Clear
1:00 AM 53.6 °F - 51.8 °F 94% 29.56 in - ESE 3.5 mph - N/A   Clear
1:30 AM 53.6 °F - 50.0 °F 88% 29.56 in - East 3.5 mph - N/A   Clear
2:00 AM 53.6 °F - 51.8 °F 94% 29.53 in - SE 4.6 mph - N/A   Clear
2:30 AM 53.6 °F - 51.8 °F 94% 29.50 in 6.2 mi Variable 3.5 mph - N/A   Partly Cloudy
3:00 AM 53.6 °F - 51.8 °F 94% 29.47 in 6.2 mi Calm Calm - N/A   Partly Cloudy
3:30 AM 53.6 °F - 51.8 °F 94% 29.47 in 6.2 mi Calm Calm - N/A   Partly Cloudy
4:00 AM 56 °F - 55 °F 96% 29.46 in 19 mi SE 4.5 mph - - Rain Light Rain
4:00 AM 57.2 °F - 55.4 °F 94% 29.44 in 6.2 mi SE 4.6 mph - N/A Rain Light Rain
4:30 AM 60.8 °F - 57.2 °F 88% 29.44 in - SE 8.1 mph - N/A   Clear
5:00 AM 62.6 °F - 57.2 °F 82% 29.44 in - SE 6.9 mph - N/A   Clear
5:30 AM 66.2 °F - 59.0 °F 78% 29.42 in - SSE 10.4 mph - N/A   Clear
6:00 AM 66.2 °F - 59.0 °F 78% 29.42 in - SSE 9.2 mph - N/A   Clear
6:30 AM 68.0 °F - 59.0 °F 73% 29.42 in - South 12.7 mph - N/A   Clear
7:00 AM 69 °F - 59 °F 61% 29.41 in 31 mi South 13.4 mph - -   Partly Cloudy
7:00 AM 68.0 °F - 59.0 °F 73% 29.42 in - South 12.7 mph - N/A   Clear
7:30 AM 68.0 °F - 59.0 °F 73% 29.42 in - South 11.5 mph - N/A   Clear
8:00 AM 71.6 °F - 59.0 °F 64% 29.42 in 6.2 mi South 13.8 mph - N/A   Partly Cloudy
8:30 AM 71.6 °F - 59.0 °F 64% 29.42 in 6.2 mi South 11.5 mph - N/A   Partly Cloudy
9:00 AM 71.6 °F - 60.8 °F 69% 29.44 in 6.2 mi WSW 6.9 mph - N/A Rain Light Rain
9:30 AM 71.6 °F - 60.8 °F 69% 29.42 in 6.2 mi SSW 9.2 mph - N/A   Partly Cloudy
10:00 AM 73 °F - 61 °F 57% 29.44 in 25 mi SSW 11.2 mph - -   Partly Cloudy
10:00 AM 73.4 °F - 60.8 °F 65% 29.44 in 6.2 mi SSW 10.4 mph - N/A   Partly Cloudy
10:30 AM 73.4 °F - 60.8 °F 65% 29.44 in 6.2 mi SW 9.2 mph - N/A   Partly Cloudy
11:00 AM 71.6 °F - 62.6 °F 73% 29.47 in 6.2 mi SSW 4.6 mph - N/A Rain Light Rain
11:30 AM 51.8 °F - 48.2 °F 88% 29.50 in 6.2 mi ENE 20.7 mph 33.4 mph N/A   Overcast
12:00 PM 50.0 °F - 46.4 °F 87% 29.53 in 6.2 mi ENE 16.1 mph - N/A Rain Light Rain
12:30 PM 50.0 °F - 46.4 °F 87% 29.53 in 6.2 mi ENE 9.2 mph 20.7 mph N/A   Overcast
1:00 PM 49 °F - 46 °F 85% 29.57 in 3 mi NE 17.9 mph - - Rain Heavy Rain Showers
1:00 PM 48.2 °F - 46.4 °F 93% 29.56 in 3.1 mi NE 18.4 mph - N/A Rain Rain Showers
1:30 PM 48.2 °F - 44.6 °F 87% 29.59 in 4.3 mi ENE 12.7 mph - N/A Rain Light Rain Showers
2:00 PM 46.4 °F 40.4 °F 44.6 °F 93% 29.59 in 3.1 mi ENE 13.8 mph - N/A Rain Rain
2:30 PM 46.4 °F 41.1 °F 44.6 °F 93% 29.62 in 4.3 mi NE 11.5 mph - N/A Rain Light Rain
3:00 PM 46.4 °F 41.9 °F 44.6 °F 93% 29.62 in 4.3 mi NE 9.2 mph - N/A Rain Light Rain
3:30 PM 46.4 °F 42.9 °F 44.6 °F 93% 29.65 in 5.0 mi Variable 6.9 mph - N/A Rain Light Rain
4:00 PM 47 °F - 45 °F 91% 29.69 in 9 mi East 4.5 mph - - Rain Light Rain
4:00 PM 46.4 °F 45.2 °F 44.6 °F 93% 29.68 in 6.2 mi East 3.5 mph - N/A   Partly Cloudy
4:30 PM 46.4 °F - 44.6 °F 93% 29.71 in 6.2 mi Variable 2.3 mph - N/A   Partly Cloudy
5:00 PM 46.4 °F 45.2 °F 44.6 °F 93% 29.71 in 6.2 mi SE 3.5 mph - N/A Rain Light Rain
5:30 PM 46.4 °F 45.2 °F 44.6 °F 93% 29.74 in 6.2 mi South 3.5 mph - N/A Rain Light Rain
6:00 PM 46.4 °F 45.2 °F 46.4 °F 100% 29.77 in 6.2 mi WSW 3.5 mph - N/A Rain Light Rain
6:30 PM 46.4 °F - 46.4 °F 100% 29.77 in 6.2 mi WSW 2.3 mph - N/A Rain Light Rain
7:00 PM 47 °F - 46 °F 93% 29.81 in 6 mi West 4.5 mph - - Rain Light Rain
7:00 PM 46.4 °F 43.5 °F 46.4 °F 100% 29.80 in 6.2 mi West 5.8 mph - N/A Rain Light Rain
7:30 PM 46.4 °F 45.2 °F 44.6 °F 93% 29.83 in 4.3 mi WSW 3.5 mph - N/A Rain Light Rain
8:00 PM 46.4 °F 43.5 °F 44.6 °F 93% 29.83 in 6.2 mi West 5.8 mph - N/A Rain Light Rain
8:30 PM 46.4 °F 44.3 °F 44.6 °F 93% 29.83 in 6.2 mi WSW 4.6 mph - N/A Rain Light Rain
9:00 PM 46.4 °F 42.9 °F 44.6 °F 93% 29.83 in 6.2 mi SW 6.9 mph - N/A Rain Light Rain
9:30 PM 44.6 °F 40.7 °F 42.8 °F 93% 29.83 in 6.2 mi WSW 6.9 mph - N/A   Partly Cloudy
10:00 PM 46 °F - 43 °F 87% 29.86 in 19 mi SW 8.9 mph - - Rain Light Rain
10:00 PM 46.4 °F 42.4 °F 42.8 °F 87% 29.86 in 6.2 mi SW 8.1 mph - N/A   Partly Cloudy
10:30 PM 46.4 °F 42.4 °F 44.6 °F 93% 29.86 in 6.2 mi SW 8.1 mph - N/A   Partly Cloudy
11:00 PM 46.4 °F 42.9 °F 44.6 °F 93% 29.83 in 6.2 mi SW 6.9 mph - N/A   Partly Cloudy
11:30 PM 46.4 °F 42.9 °F 44.6 °F 93% 29.86 in 6.2 mi WSW 6.9 mph - N/A   Partly Cloudy